WB4FAY-4 Weather Reports


Display with metric or nautical units.
time (UTC)temp
F
wind
direction
speed
MPH
gust
MPH
rain 1hr
in
rain 24hr
in
rain mn
in
humidity
%
barometer
mb
20260906183017 96 302 0.0 5.0 0.00 0.00 0.02 44 1012.5
20260906182517 96 21 3.0 7.0 0.00 0.00 0.02 43 1012.7
20260906182017 96 34 0.0 6.0 0.00 0.00 0.02 42 1012.7
20260906181517 96 56 4.0 6.0 0.00 0.00 0.02 43 1012.9
20260906181017 96 80 2.0 6.0 0.00 0.00 0.02 43 1012.8
20260906180517 95 16 0.0 4.0 0.00 0.00 0.02 44 1012.8
20260906180017 95 265 0.0 4.0 0.00 0.00 0.02 46 1013.0
20260906175517 94 112 0.0 5.0 0.00 0.00 0.02 46 1013.0
20260906175017 94 117 3.0 4.0 0.00 0.00 0.02 47 1013.1
20260906174517 93 14 0.0 4.0 0.00 0.00 0.02 48 1013.1
20260906174017 93 342 1.0 5.0 0.00 0.00 0.02 48 1013.1
20260906173517 93 7 2.0 5.0 0.00 0.00 0.02 51 1013.2
20260906173017 92 157 0.0 5.0 0.00 0.00 0.02 53 1013.2
20260906172518 92 268 3.0 4.0 0.00 0.00 0.02 55 1013.3
20260906172017 92 99 0.0 5.0 0.00 0.00 0.02 56 1013.4
20260906171517 91 346 0.0 5.0 0.00 0.00 0.02 56 1013.4
20260906171017 91 80 1.0 4.0 0.00 0.00 0.02 56 1013.4
20260906170517 91 71 4.0 4.0 0.00 0.00 0.02 56 1013.5
20260906170017 91 71 1.0 5.0 0.00 0.00 0.02 57 1013.6
20260906165518 90 93 2.0 7.0 0.00 0.00 0.02 58 1013.6
20260906165017 90 360 0.0 4.0 0.00 0.00 0.02 58 1013.7
20260906164517 90 83 0.0 2.0 0.00 0.00 0.02 58 1013.8
20260906164017 90 0 0.0 0.0 0.00 0.00 0.02 58 1013.8
20260906163517 89 109 0.0 1.0 0.00 0.00 0.02 58 1013.9
20260906163017 89 78 1.0 5.0 0.00 0.00 0.02 59 1014.0
20260906162517 89 93 5.0 6.0 0.00 0.00 0.02 60 1014.0
20260906162018 88 79 2.0 2.0 0.00 0.00 0.02 62 1013.9
20260906161517 88 82 1.0 4.0 0.00 0.00 0.02 62 1014.0
20260906161017 87 82 1.0 4.0 0.00 0.00 0.02 66 1014.0
20260906160518 86 353 0.0 3.0 0.00 0.00 0.02 66 1014.0
20260906160017 86 86 2.0 3.0 0.00 0.00 0.02 66 1014.0
20260906155517 86 301 3.0 4.0 0.00 0.00 0.02 67 1014.0
20260906155018 85 240 3.0 2.0 0.00 0.00 0.02 67 1014.1
20260906154518 85 253 0.0 2.0 0.00 0.00 0.02 69 1014.1
20260906154017 85 0 0.0 0.0 0.00 0.00 0.02 70 1014.2
20260906153517 84 0 0.0 0.0 0.00 0.00 0.02 69 1014.2
20260906153017 84 0 0.0 0.0 0.00 0.00 0.02 71 1014.3
20260906152517 84 0 0.0 0.0 0.00 0.00 0.02 72 1014.2
20260906152018 83 0 0.0 0.0 0.00 0.00 0.02 73 1014.2
20260906151517 83 112 0.0 4.0 0.00 0.00 0.02 73 1014.2
20260906151017 83 25 2.0 3.0 0.00 0.00 0.02 74 1014.3
20260906150517 83 95 2.0 9.0 0.00 0.00 0.02 74 1014.3
20260906150017 83 79 2.0 4.0 0.00 0.00 0.02 75 1014.1
20260906145517 83 66 4.0 5.0 0.00 0.00 0.02 76 1014.1
20260906145017 82 104 1.0 6.0 0.00 0.00 0.02 76 1014.1
20260906144517 82 88 4.0 5.0 0.00 0.00 0.02 77 1014.0
20260906144018 82 76 1.0 5.0 0.00 0.00 0.02 77 1014.1
20260906143517 81 82 0.0 4.0 0.00 0.00 0.02 79 1014.0
20260906143017 81 73 1.0 6.0 0.00 0.00 0.02 82 1013.8
20260906142517 80 277 0.0 3.0 0.00 0.00 0.02 82 1013.7
20260906142017 79 275 2.0 2.0 0.00 0.00 0.02 85 1013.8
20260906141517 79 281 0.0 1.0 0.00 0.00 0.02 87 1014.0
20260906141017 78 224 0.0 0.0 0.00 0.00 0.02 87 1014.0
20260906140517 78 282 0.0 2.0 0.00 0.00 0.02 89 1014.0
20260906140017 78 277 2.0 2.0 0.00 0.00 0.02 90 1014.1
20260906135517 77 302 1.0 2.0 0.00 0.00 0.02 91 1014.1
20260906135018 77 0 0.0 0.0 0.00 0.00 0.02 91 1014.1
20260906134517 77 0 0.0 0.0 0.00 0.00 0.02 92 1014.3
20260906134018 77 0 0.0 0.0 0.00 0.00 0.02 92 1014.4
20260906133517 77 0 0.0 0.0 0.00 0.00 0.02 92 1014.5
20260906133017 77 0 0.0 0.0 0.00 0.00 0.02 92 1014.5
20260906132517 77 0 0.0 0.0 0.00 0.00 0.02 92 1014.5
20260906132017 77 0 0.0 0.0 0.00 0.00 0.02 92 1014.5
20260906131518 77 261 0.0 3.0 0.00 0.00 0.02 92 1014.2
20260906131017 77 289 3.0 2.0 0.00 0.00 0.02 92 1014.2
20260906130517 77 251 1.0 2.0 0.00 0.00 0.02 92 1014.2
20260906130017 76 47 2.0 2.0 0.00 0.00 0.02 92 1014.2
20260906125517 76 75 0.0 5.0 0.00 0.00 0.02 93 1014.3
20260906125017 76 0 0.0 0.0 0.00 0.00 0.02 93 1014.2
20260906124517 76 325 0.0 1.0 0.00 0.00 0.02 93 1014.0
20260906124017 76 202 0.0 3.0 0.00 0.00 0.02 93 1013.8
20260906123517 76 337 0.0 3.0 0.00 0.00 0.02 93 1013.9
20260906123017 76 0 0.0 0.0 0.00 0.00 0.02 93 1013.8
20260906122516 76 0 0.0 0.0 0.00 0.00 0.02 93 1013.9
20260906122017 76 31 0.0 2.0 0.00 0.00 0.02 92 1013.6
20260906121517 76 339 1.0 2.0 0.00 0.00 0.02 92 1013.7
20260906121018 76 295 0.0 2.0 0.00 0.00 0.02 92 1013.5
20260906120517 76 275 2.0 1.0 0.00 0.00 0.01 91 1013.1
20260906120017 76 246 1.0 3.0 0.00 0.00 0.01 91 1013.1
20260906115517 76 260 0.0 2.0 0.00 0.00 0.01 91 1013.0
20260906115017 76 230 1.0 2.0 0.00 0.00 0.01 91 1013.1
20260906114517 76 0 0.0 0.0 0.00 0.00 0.01 90 1013.2
20260906114017 76 0 0.0 0.0 0.00 0.00 0.01 90 1013.3
20260906113518 76 0 0.0 0.0 0.00 0.00 0.01 89 1013.4
20260906113017 76 0 0.0 0.0 0.00 0.00 0.01 89 1013.4
20260906112517 76 0 0.0 0.0 0.00 0.00 0.01 89 1013.4
20260906112017 76 0 0.0 0.0 0.00 0.00 0.01 89 1013.3
20260906111517 76 0 0.0 0.0 0.00 0.00 0.01 89 1013.4
20260906111017 76 0 0.0 0.0 0.00 0.00 0.01 89 1013.4
20260906110517 76 268 0.0 1.0 0.00 0.00 0.01 89 1013.4
20260906110017 76 268 1.0 2.0 0.00 0.00 0.01 88 1013.4
20260906105517 76 95 0.0 3.0 0.00 0.00 0.01 88 1013.3
20260906105017 76 123 2.0 4.0 0.00 0.00 0.01 88 1013.3
20260906104517 76 90 3.0 7.0 0.00 0.00 0.01 88 1013.4
20260906104017 76 116 5.0 6.0 0.00 0.00 0.01 88 1013.3
20260906103518 76 114 5.0 7.0 0.00 0.00 0.01 88 1013.4
20260906103018 76 96 2.0 12.0 0.00 0.00 0.01 88 1013.5
20260906102518 76 110 5.0 9.0 0.00 0.00 0.01 88 1013.5
20260906102017 76 85 5.0 9.0 0.00 0.00 0.01 88 1013.5
20260906101517 77 65 3.0 12.0 0.00 0.00 0.01 87 1013.6
20260906101018 77 72 11.0 8.0 0.00 0.00 0.01 87 1013.6
20260906100517 77 92 2.0 11.0 0.00 0.00 0.01 86 1013.6
20260906100017 77 126 10.0 7.0 0.00 0.00 0.01 85 1013.6
20260906095517 77 99 2.0 8.0 0.00 0.00 0.01 86 1013.6
20260906095017 77 96 1.0 8.0 0.00 0.00 0.01 85 1013.7
20260906094517 78 97 1.0 7.0 0.00 0.00 0.00 84 1013.4
20260906094017 78 75 3.0 4.0 0.00 0.00 0.00 83 1013.3
20260906093517 78 131 4.0 4.0 0.00 0.00 0.00 83 1013.1
20260906093017 78 119 2.0 4.0 0.00 0.00 0.00 82 1012.9
20260906092517 79 141 0.0 5.0 0.00 0.00 0.00 82 1012.9
20260906092017 79 257 0.0 8.0 0.00 0.00 0.00 82 1012.8
20260906091517 79 343 1.0 5.0 0.00 0.00 0.00 82 1012.8
20260906091017 79 325 2.0 7.0 0.00 0.00 0.00 82 1012.7
20260906090517 79 0 1.0 6.0 0.00 0.00 0.00 82 1012.7
20260906090017 80 306 3.0 6.0 0.00 0.00 0.00 81 1012.8
20260906085517 80 335 4.0 5.0 0.00 0.00 0.00 81 1012.9
20260906085017 80 328 0.0 4.0 0.00 0.00 0.00 81 1012.8
20260906084517 80 360 2.0 7.0 0.00 0.00 0.00 81 1012.8
20260906084017 80 256 2.0 9.0 0.00 0.00 0.00 82 1012.8
20260906083517 81 359 3.0 6.0 0.00 0.00 0.00 82 1012.9
20260906083018 81 328 3.0 6.0 0.00 0.00 0.00 83 1012.9
20260906082517 81 280 0.0 4.0 0.00 0.00 0.00 83 1013.0
20260906082017 81 8 3.0 8.0 0.00 0.00 0.00 83 1013.0
20260906081517 81 75 0.0 2.0 0.00 0.00 0.00 83 1013.2
20260906081017 81 347 1.0 6.0 0.00 0.00 0.00 83 1013.2
20260906080517 81 268 3.0 4.0 0.00 0.00 0.00 83 1013.4
20260906080017 81 344 2.0 5.0 0.00 0.00 0.00 84 1013.5
20260906075517 81 347 3.0 5.0 0.00 0.00 0.00 84 1013.5
20260906075017 80 13 1.0 4.0 0.00 0.00 0.00 85 1013.4
20260906074517 80 58 1.0 7.0 0.00 0.00 0.00 85 1013.4
20260906074018 80 301 0.0 3.0 0.00 0.00 0.00 85 1013.3
20260906073517 80 270 1.0 5.0 0.00 0.00 0.00 86 1013.1
20260906073017 80 0 2.0 0.0 0.00 0.00 0.00 86 1013.1
20260906072518 80 0 0.0 0.0 0.00 0.00 0.00 86 1013.0
20260906072017 80 0 0.0 0.0 0.00 0.00 0.00 86 1012.9
20260906071517 80 0 0.0 0.0 0.00 0.00 0.00 85 1013.0
20260906071018 80 0 0.0 0.0 0.00 0.00 0.00 85 1013.2
20260906070517 80 0 0.0 0.0 0.00 0.00 0.00 85 1013.3
20260906070017 80 0 0.0 0.0 0.00 0.00 0.00 85 1013.2
20260906065518 80 0 0.0 0.0 0.00 0.00 0.00 85 1013.1
20260906065017 80 0 0.0 0.0 0.00 0.00 0.00 85 1013.1
20260906064517 80 0 0.0 0.0 0.00 0.00 0.00 85 1013.2
20260906064017 80 0 0.0 0.0 0.00 0.00 0.00 85 1013.3
20260906063517 80 0 0.0 0.0 0.00 0.00 0.00 85 1013.3
20260906063017 80 0 0.0 0.0 0.00 0.00 0.00 85 1013.4
20260906062517 81 0 0.0 0.0 0.00 0.00 0.00 84 1013.5
20260906062018 80 0 0.0 0.0 0.00 0.00 0.00 85 1013.5
20260906061517 80 0 0.0 0.0 0.00 0.00 0.00 85 1013.5
20260906061017 80 0 0.0 0.0 0.00 0.00 0.00 85 1013.7
20260906060518 80 0 0.0 0.0 0.00 0.00 0.00 85 1013.8
20260906060017 81 0 0.0 0.0 0.00 0.00 0.00 84 1013.7
20260906055517 80 0 0.0 0.0 0.00 0.00 0.00 84 1013.9
20260906055018 80 0 0.0 0.0 0.00 0.00 0.00 84 1013.9
20260906054517 81 0 0.0 0.0 0.00 0.00 0.00 84 1013.8
20260906054017 80 0 0.0 0.0 0.00 0.00 0.00 84 1013.7
20260906053517 81 0 0.0 0.0 0.00 0.00 0.00 83 1013.9
20260906053017 81 0 0.0 0.0 0.00 0.00 0.00 83 1013.9
20260906052517 81 0 0.0 0.0 0.00 0.00 0.00 83 1013.8
20260906052017 81 0 0.0 0.0 0.00 0.00 0.00 83 1014.0
20260906051517 81 0 0.0 0.0 0.00 0.00 0.00 82 1014.0
20260906051017 81 0 0.0 0.0 0.00 0.00 0.00 82 1014.0
20260906050517 81 0 0.0 0.0 0.00 0.00 0.00 82 1014.1
20260906050017 81 0 0.0 0.0 0.00 0.00 0.00 82 1014.1
20260906045517 81 0 0.0 0.0 0.00 0.00 0.00 82 1014.0
20260906045017 81 0 0.0 0.0 0.00 0.00 0.00 81 1013.9
20260906044517 81 0 0.0 0.0 0.00 0.00 0.00 81 1014.1
20260906044017 81 0 0.0 0.0 0.00 0.00 0.00 81 1014.1
20260906043517 81 0 0.0 0.0 0.00 0.00 0.00 81 1014.1
20260906043017 81 59 0.0 4.0 0.00 0.00 0.00 81 1014.1
20260906042517 81 93 0.0 3.0 0.00 0.00 0.00 81 1014.0
20260906042018 81 0 0.0 0.0 0.00 0.00 0.00 81 1013.9
20260906041517 81 0 0.0 0.0 0.00 0.00 0.00 81 1013.9
20260906041017 81 0 0.0 0.0 0.00 0.00 0.00 81 1013.8
20260906040517 82 0 0.0 0.0 0.00 0.00 0.00 81 1013.8
20260906040018 81 0 0.0 0.0 0.00 0.00 0.00 81 1013.8
20260906035517 81 0 0.0 0.0 0.00 0.00 0.00 80 1013.8
20260906035017 82 332 0.0 0.0 0.00 0.00 0.00 80 1013.9
20260906034517 82 335 0.0 1.0 0.00 0.00 0.00 80 1013.8
20260906034017 82 0 0.0 0.0 0.00 0.00 0.00 80 1013.9
20260906033517 82 0 0.0 0.0 0.00 0.00 0.00 80 1014.0
20260906033017 82 0 0.0 0.0 0.00 0.00 0.00 80 1014.0
20260906032518 82 0 0.0 0.0 0.00 0.00 0.00 80 1014.0
20260906032017 82 0 0.0 0.0 0.00 0.00 0.00 79 1013.9
20260906031517 82 0 0.0 0.0 0.00 0.00 0.00 79 1013.8
20260906031022 82 0 0.0 0.0 0.00 0.00 0.00 79 1013.8
20260906030517 82 0 0.0 0.0 0.00 0.00 0.00 79 1013.8
20260906030017 83 0 0.0 0.0 0.00 0.00 0.00 79 1013.7
20260906025517 83 0 0.0 0.0 0.00 0.00 0.00 79 1013.7
20260906025017 83 0 0.0 0.0 0.00 0.00 0.00 79 1013.7
20260906024517 83 0 0.0 0.0 0.00 0.00 0.00 78 1013.8
20260906024017 83 0 0.0 0.0 0.00 0.00 0.00 78 1013.7
20260906023517 83 0 0.0 0.0 0.00 0.00 0.00 77 1013.7
20260906023017 84 0 0.0 0.0 0.00 0.00 0.00 77 1013.8
20260906022517 83 0 0.0 0.0 0.00 0.00 0.00 76 1013.8
20260906022017 84 0 0.0 0.0 0.00 0.00 0.00 77 1013.8
20260906021517 84 0 0.0 0.0 0.00 0.00 0.00 76 1013.7
20260906021017 84 0 0.0 0.0 0.00 0.00 0.00 76 1013.6
20260906020517 84 0 0.0 0.0 0.00 0.00 0.00 75 1013.6
20260906020018 84 0 0.0 0.0 0.00 0.00 0.00 75 1013.6
20260906015517 85 0 0.0 0.0 0.00 0.00 0.00 74 1013.5
20260906015017 85 0 0.0 0.0 0.00 0.00 0.00 74 1013.4
20260906014517 85 0 0.0 0.0 0.00 0.00 0.00 74 1013.2
20260906014017 85 0 0.0 0.0 0.00 0.00 0.00 73 1013.1
20260906013517 85 0 0.0 0.0 0.00 0.00 0.00 73 1013.0
20260906013017 85 0 0.0 0.0 0.00 0.00 0.00 72 1012.9
20260906012517 85 0 0.0 0.0 0.00 0.00 0.00 72 1012.8
20260906012017 85 198 0.0 3.0 0.00 0.00 0.00 72 1012.7
20260906011517 85 198 1.0 4.0 0.00 0.00 0.00 72 1012.6
20260906011017 86 223 2.0 3.0 0.00 0.00 0.00 72 1012.5
20260906010517 86 216 1.0 4.0 0.00 0.00 0.00 72 1012.5
20260906010017 86 268 0.0 2.0 0.00 0.00 0.00 71 1012.4
20260906005517 86 253 1.0 3.0 0.00 0.00 0.00 71 1012.4
20260906005017 86 240 3.0 1.0 0.00 0.00 0.00 70 1012.4
20260906004517 86 223 0.0 5.0 0.00 0.00 0.00 70 1012.4
20260906004018 86 227 3.0 3.0 0.00 0.00 0.00 70 1012.4
20260906003517 87 272 1.0 5.0 0.00 0.00 0.00 69 1012.4
20260906003018 87 292 1.0 3.0 0.00 0.00 0.00 68 1012.4
20260906002517 87 196 1.0 6.0 0.00 0.00 0.00 68 1012.4
20260906002017 87 233 4.0 3.0 0.00 0.00 0.00 68 1012.3
20260906001517 87 0 0.0 0.0 0.00 0.00 0.00 67 1012.3
20260906001017 88 215 0.0 2.0 0.00 0.00 0.00 67 1012.5
20260906000517 88 199 0.0 6.0 0.00 0.00 0.00 66 1012.5
20260906000017 88 254 1.0 6.0 0.00 0.00 0.00 67 1012.5
20260905235517 88 244 3.0 4.0 0.00 0.00 0.00 67 1012.5
20260905235017 88 203 4.0 6.0 0.00 0.00 0.00 67 1012.5
20260905234517 88 192 3.0 7.0 0.00 0.00 0.00 66 1012.5
20260905234017 89 199 0.0 10.0 0.00 0.00 0.00 65 1012.6
20260905233517 89 0 0.0 0.0 0.00 0.00 0.00 65 1012.4
20260905233017 89 236 0.0 4.0 0.00 0.00 0.00 64 1012.4
20260905232517 89 191 3.0 6.0 0.00 0.00 0.00 64 1012.4
20260905232018 90 199 0.0 6.0 0.00 0.00 0.00 63 1012.3
20260905231517 90 199 0.0 8.0 0.00 0.00 0.00 62 1012.3
20260905231017 91 223 4.0 5.0 0.00 0.00 0.00 62 1012.3
20260905230517 91 199 2.0 5.0 0.00 0.00 0.00 60 1012.1
20260905230017 91 267 0.0 7.0 0.00 0.00 0.00 59 1012.2
20260905225517 92 193 3.0 11.0 0.00 0.00 0.00 58 1012.2
20260905225017 93 304 5.0 10.0 0.00 0.00 0.00 57 1012.3
20260905224517 93 209 1.0 5.0 0.00 0.00 0.00 55 1012.3
20260905224017 93 202 1.0 8.0 0.00 0.00 0.00 55 1012.1
20260905223517 94 199 2.0 8.0 0.00 0.00 0.00 54 1012.1
20260905223017 94 0 0.0 0.0 0.00 0.00 0.00 53 1012.1
20260905222517 94 0 0.0 0.0 0.00 0.00 0.00 50 1012.2
20260905222018 95 301 0.0 5.0 0.00 0.00 0.00 49 1012.1
20260905221517 95 0 0.0 0.0 0.00 0.00 0.00 46 1012.0
20260905221017 95 0 0.0 0.0 0.00 0.00 0.00 44 1011.9
20260905220517 95 0 0.0 0.0 0.00 0.00 0.00 43 1011.9
20260905220017 96 0 0.0 0.0 0.00 0.00 0.00 44 1012.0
20260905215517 96 0 0.0 0.0 0.00 0.00 0.00 44 1011.8
20260905215017 96 0 0.0 0.0 0.00 0.00 0.00 44 1011.9
20260905214517 97 79 0.0 2.0 0.00 0.00 0.00 41 1011.9
20260905214018 98 0 0.0 0.0 0.00 0.00 0.00 38 1011.8
20260905213517 99 0 0.0 0.0 0.00 0.00 0.00 37 1011.8
20260905213017 99 0 0.0 0.0 0.00 0.00 0.00 37 1011.9
20260905212518 99 137 0.0 3.0 0.00 0.00 0.00 37 1011.9
20260905212018 99 102 0.0 4.0 0.00 0.00 0.00 37 1012.0
20260905211517 99 360 3.0 4.0 0.00 0.00 0.00 37 1012.1
20260905211018 99 28 0.0 3.0 0.00 0.00 0.00 37 1012.1
20260905210517 100 85 0.0 6.0 0.00 0.00 0.00 36 1012.0
20260905210018 100 76 0.0 6.0 0.00 0.00 0.00 35 1012.1
20260905205517 101 154 2.0 6.0 0.00 0.00 0.00 35 1012.1
20260905205017 101 113 0.0 5.0 0.00 0.00 0.00 35 1012.1
20260905204518 101 73 1.0 5.0 0.00 0.00 0.00 34 1012.2
20260905204017 101 103 2.0 4.0 0.00 0.00 0.00 33 1012.2
20260905203517 100 103 0.0 3.0 0.00 0.00 0.00 35 1012.2
20260905203017 100 164 0.0 6.0 0.00 0.00 0.00 36 1012.3
20260905202517 100 37 0.0 5.0 0.00 0.00 0.00 36 1012.3
20260905202018 100 17 2.0 6.0 0.00 0.00 0.00 36 1012.4
20260905201517 100 55 3.0 4.0 0.00 0.00 0.00 36 1012.5
20260905201017 100 158 2.0 6.0 0.00 0.00 0.00 36 1012.5
20260905200517 100 178 1.0 8.0 0.00 0.00 0.00 36 1012.5
20260905200017 99 82 6.0 7.0 0.00 0.00 0.00 37 1012.6
20260905195518 99 79 2.0 8.0 0.00 0.00 0.00 37 1012.6
20260905195017 99 89 8.0 4.0 0.00 0.00 0.00 38 1012.6
20260905194517 98 93 1.0 8.0 0.00 0.00 0.00 38 1012.7
20260905194017 97 34 0.0 5.0 0.00 0.00 0.00 40 1012.7
20260905193517 97 45 3.0 4.0 0.00 0.00 0.00 41 1012.7
20260905193017 97 72 2.0 6.0 0.00 0.00 0.00 41 1012.8
20260905192517 97 106 1.0 10.0 0.00 0.00 0.00 40 1012.9
20260905192017 97 96 0.0 6.0 0.00 0.00 0.00 40 1013.0
20260905191517 98 52 2.0 4.0 0.00 0.00 0.00 39 1013.0
20260905191017 98 106 0.0 8.0 0.00 0.00 0.00 38 1013.1
20260905190517 98 86 3.0 4.0 0.00 0.00 0.00 38 1013.2
20260905190017 97 37 0.0 4.0 0.00 0.00 0.00 41 1013.2
20260905185517 97 75 2.0 7.0 0.00 0.00 0.00 39 1013.1
20260905185018 98 49 3.0 8.0 0.00 0.00 0.00 40 1013.3
20260905184517 97 92 0.0 7.0 0.00 0.00 0.00 40 1013.4
20260905184017 97 90 5.0 8.0 0.00 0.00 0.00 40 1013.6
20260905183517 97 32 0.0 6.0 0.00 0.00 0.00 39 1013.6